Southport, FL

7:33 PM CDT on September 27, 2016 (GMT -0500)
Northwest Florida Beaches International

Weather History for KECP - November, 2013

Change the Weather History Date:

Sunday, November 3, 2013

  Actual Average Record
Temperature  
Mean Temperature 60 °F -  
Max Temperature 71 °F - 83 °F (2012)
Min Temperature 48 °F - 34 °F (2014)
Degree Days  
Heating Degree Days 5    
Cooling Degree Days 0    
Growing Degree Days 9 (Base 50)    
Moisture  
Dew Point 44 °F    
Average Humidity 63    
Maximum Humidity 93    
Minimum Humidity 33    
Precipitation  
Precipitation 0.00 in - 1.39 in (2010)
Month to date precipitation  
Year to date precipitation  
Sea Level Pressure  
Sea Level Pressure 30.18 in    
Wind  
Wind Speed 8 mph (North)    
Max Wind Speed 16 mph    
Max Gust Speed 32 mph    
Visibility 10 miles    
Events      
T = Trace of Precipitation, MM = Missing Value Source: NWS Daily Summary

Daily Weather History Graph

Daily Weather History Graph

Search for Another Location

Airport or City:

Trip Planner

Search our weather history database for the weather conditions in past years. The results will help you decide how hot, cold, wet, or windy it might be!

Date:

Astronomy

Nov. 03, 2013 Rise Set
Actual Time 6:59 AM EST 5:53 PM EST
Civil Twilight 6:34 AM EST 6:18 PM EST
Nautical Twilight 6:05 AM EST 6:47 PM EST
Astronomical Twilight 5:37 AM EST 7:15 PM EST
Moon 7:01 AM EST (11/3) 6:10 PM EST (11/3)
Length of Visible Light 11h 44m
Length of Day
10h 54m
New Moon, 0% of the Moon is Illuminated
Nov 3
New Moon
Nov 10
First Quarter
Nov 17
Full
Nov 25
Last Quarter
Dec 2
New

Hourly Weather History & Observations

Time (EST) Temp. Dew Point Humidity Pressure Visibility Wind Dir Wind Speed Gust Speed Precip Events Conditions
12:53 AM 55.9 °F 45.0 °F 67% 30.10 in 10.0 mi NNW 8.1 mph - N/A   Clear
1:53 AM 52.0 °F 46.0 °F 80% 30.11 in 10.0 mi NW 5.8 mph - N/A   Clear
1:53 AM 52.0 °F 45.0 °F 77% 30.12 in 10.0 mi NNW 8.1 mph - N/A   Clear
2:53 AM 51.1 °F 45.0 °F 80% 30.12 in 10.0 mi NNW 9.2 mph - N/A   Clear
3:53 AM 50.0 °F 45.0 °F 83% 30.13 in 10.0 mi NNW 10.4 mph - N/A   Clear
4:53 AM 48.9 °F 45.0 °F 86% 30.14 in 10.0 mi NNW 8.1 mph - N/A   Clear
5:53 AM 48.0 °F 45.0 °F 89% 30.15 in 10.0 mi NNW 6.9 mph - N/A   Clear
6:53 AM 48.9 °F 44.1 °F 83% 30.17 in 10.0 mi North 9.2 mph - N/A   Clear
7:53 AM 51.1 °F 45.0 °F 80% 30.18 in 10.0 mi North 8.1 mph - N/A   Clear
8:53 AM 55.9 °F 45.0 °F 67% 30.20 in 10.0 mi NNE 11.5 mph - N/A   Clear
9:53 AM 61.0 °F 44.1 °F 54% 30.22 in 10.0 mi North 9.2 mph - N/A   Clear
10:53 AM 64.9 °F 41.0 °F 42% 30.23 in 10.0 mi NNE 11.5 mph - N/A   Clear
11:53 AM 66.9 °F 41.0 °F 39% 30.22 in 10.0 mi NNE 13.8 mph 19.6 mph N/A   Clear
12:53 PM 69.1 °F 41.0 °F 36% 30.18 in 10.0 mi NNE 11.5 mph - N/A   Clear
1:53 PM 69.1 °F 39.9 °F 35% 30.17 in 10.0 mi NNE 8.1 mph - N/A   Clear
2:53 PM 70.0 °F 39.9 °F 33% 30.16 in 10.0 mi North 11.5 mph 32.2 mph N/A   Clear
3:53 PM 70.0 °F 39.0 °F 32% 30.16 in 10.0 mi NNW 9.2 mph - N/A   Clear
4:53 PM 68.0 °F 39.0 °F 35% 30.16 in 10.0 mi Variable 3.5 mph - N/A   Clear
5:53 PM 61.0 °F 44.1 °F 54% 30.19 in 10.0 mi North 3.5 mph - N/A   Clear
6:53 PM 53.1 °F 50.0 °F 89% 30.20 in 10.0 mi NNE 4.6 mph - N/A   Clear
7:53 PM 50.0 °F 48.0 °F 93% 30.21 in 10.0 mi NNE 3.5 mph - N/A   Clear
8:53 PM 50.0 °F 46.0 °F 86% 30.23 in 10.0 mi NNE 5.8 mph - N/A   Clear
9:53 PM 51.1 °F 45.0 °F 80% 30.23 in 10.0 mi NNE 5.8 mph - N/A   Clear
10:53 PM 50.0 °F 46.0 °F 86% 30.24 in 10.0 mi NNE 5.8 mph - N/A   Clear